This demonstration page uses our WeatherBlox Daily Observations layout. Learn more.

36.17497, -115.13722

Hourly Observations for July 12, 2016

Temp ( °F °C ) Dew Point ( °F °C ) Humidity (%) Winds ( mph kmh ) Pressure ( in mb ) Visibility ( mi km ) Precip ( " mm )
12:53 am 00:53 Clear 83 28.3 26 -3.3 12 12 NNW 6 9 29.62 1003 10 16.09344 0 0
1:53 am 01:53 Clear 80 26.7 27 -2.8 14 14 NNW 3 6 29.62 1003 10 16.09344 0 0
2:53 am 02:53 Clear 78 25.6 30 -1.1 17 17 Calm 29.65 1004 10 16.09344 0 0
3:53 am 03:53 Clear 76 24.4 29 -1.7 18 18 N 5 7 29.65 1004 10 16.09344 0 0
4:53 am 04:53 Clear 77 25 27 -2.8 16 16 N 3 6 29.68 1005 10 16.09344 0 0
5:53 am 05:53 Sunny 75 23.9 31 -0.6 20 20 WNW 7 11 29.68 1005 10 16.09344 0 0
6:53 am 06:53 Sunny 78 25.6 30 -1.1 17 17 N 3 6 29.71 1006 10 16.09344 0 0
7:53 am 07:53 Sunny 81 27.2 28 -2.2 14 14 Calm 29.71 1006 10 16.09344 0 0
8:53 am 08:53 Sunny 86 30 29 -1.7 13 13 Calm 29.71 1006 10 16.09344 0 0
9:53 am 09:53 Sunny 92 33.3 31 -0.6 11 11 E 9 15 29.68 1005 10 16.09344 0 0
10:53 am 10:53 Sunny 97 36.1 28 -2.2 9 9 S 15 24 29.65 1004 10 16.09344 0 0
11:53 am 11:53 Sunny 98 36.7 28 -2.2 8 8 SSE 15 24 29.62 1003 10 16.09344 0 0
12:53 pm 12:53 Sunny 102 38.9 24 -4.4 6 6 S 15 24 29.56 1001 10 16.09344 0 0
1:53 pm 13:53 Sunny 102 38.9 24 -4.4 6 6 S 13 20 29.56 1001 10 16.09344 0 0
2:53 pm 14:53 Sunny 103 39.4 21 -6.1 5 5 SSW 10 17 29.53 1000 10 16.09344 0 0
3:53 pm 15:53 Sunny 104 40 20 -6.7 5 5 S 13 20 29.53 1000 10 16.09344 0 0
4:53 pm 16:53 Sunny 103 39.4 20 -6.7 5 5 SSW 17 28 29.5 999 10 16.09344 0 0
5:53 pm 17:53 Sunny 103 39.4 19 -7.2 5 5 S 13 20 29.5 999 10 16.09344 0 0
6:53 pm 18:53 Sunny 101 38.3 21 -6.1 6 6 SSW 13 20 29.5 999 10 16.09344 0 0
7:53 pm 19:53 Sunny 99 37.2 22 -5.6 6 6 SSW 13 20 29.56 1001 10 16.09344 0 0
8:53 pm 20:53 Clear 96 35.6 22 -5.6 7 7 SSW 12 19 29.56 1001 10 16.09344 0 0
9:53 pm 21:53 Clear 94 34.4 21 -6.1 7 7 SSW 10 17 29.62 1003 10 16.09344 0 0
10:53 pm 22:53 Clear 90 32.2 23 -5 9 9 Calm 29.65 1004 10 16.09344 0 0
11:53 pm 23:53 Clear 87 30.6 26 -3.3 11 11 WSW 3 6 29.68 1005 10 16.09344 0 0

Powered by AerisWeather